Location: Seattle
(47.6064°N, 122.3308°W)
Time: 03:38:47
(UTC-08:00)

N. Korean satellite - Pass Details

Date: 29 October 2020
Orbit: 453 x 503 km, 97.2° (Epoch: 03 December)

Event Time Altitude Azimuth Distance (km) Brightness Sun altitude
Rises 06:55:27 0° 10° (N) 2,483 10.2 -9.7°
Reaches altitude 10° 06:57:31 10° 9° (N) 1,601 9.2 -9.3°
Maximum altitude 07:00:55 73° 285° (WNW) 481 6.3 -8.8°
Drops below altitude 10° 07:04:19 10° 200° (SSW) 1,588 9.1 -8.2°
Sets 07:06:20 0° 199° (SSW) 2,459 10.1 -7.9°
